Flag for India Weather past 2 weeks in Faridabad, Haryana, India

Now
57 °F

Fog.


Feels Like: 57 °F
Forecast: 53 / 72 °F
Wind: 2 mph from North

Location: New Delhi Palam Airport

Current Time: Mar 4, 2015 at 2:39:36 AM

Latest Report: Mar 4, 2015 at 2:00 AM


Visibility: 1 mi

Pressure: 29.92 "Hg

Humidity: 82%

Dew point: 52 °F

Location of FaridabadLocation

Historic Weather in Faridabad — Graph

°F

Faridabad temperature yesterday

Maximum temperature yesterday: 70 °F (at 2:30 PM)
Minimum temperature yesterday: 55 °F (at 7:00 AM)
Average temperature yesterday: 62 °F

Past Weeks' High & Low Weather Summary

 TemperatureHumidityPressure
High84 °F (Feb 18, 3:30 PM)100% (Feb 18, 6:00 AM)30.04 "Hg (Feb 18, 6:00 AM)
Low54 °F (Feb 27, 7:00 AM)16% (Feb 27, 3:00 PM)29.77 "Hg (Feb 25, 2:30 AM)
Average70 °F64%29.90 "Hg
* Reported Feb 17 12:30 AM — Mar 4 12:30 AM, Faridabad, Weather by CustomWeather, © 2015

Note: Actual official high and low records may vary slightly from our data, if they occured in-between our weather recording intervals... More about our weather records

Advertising

Faridabad weather history for previous 24 hours

 ConditionsComfort  
Time TempWeatherWind HumidityBarometerVisibility
12:30 AM
Wed, Mar 4
59 °FFog.3 mph82%29.95 "Hg1 mi
12:00 AM59 °FFog.5 mph82%29.95 "Hg1 mi
11:30 PM
Tue, Mar 3
61 °FHaze.6 mph72%29.95 "Hg1 mi
11:00 PM61 °FHaze.6 mph72%29.95 "Hg1 mi
10:30 PM61 °FHaze.6 mph72%29.95 "Hg1 mi
8:00 PM64 °FHaze.6 mph73%29.92 "Hg2 mi
7:30 PM64 °FHaze.8 mph68%29.92 "Hg2 mi
7:00 PM64 °FHaze.9 mph68%29.89 "Hg2 mi
6:30 PM66 °FHaze.8 mph68%29.89 "Hg2 mi
6:00 PM68 °FHaze.10 mph64%29.89 "Hg2 mi
5:30 PM68 °FHaze.10 mph64%29.89 "Hg2 mi
4:30 PM70 °FHaze.10 mph57%29.89 "Hg2 mi
4:00 PM70 °FScattered clouds.8 mph60%29.89 "Hg2 mi
3:30 PM70 °FScattered clouds.8 mph60%29.92 "Hg2 mi
3:00 PM70 °FScattered clouds.8 mph60%29.92 "Hg2 mi
2:30 PM70 °FBroken clouds.7 mph64%29.95 "Hg2 mi
2:00 PM68 °FBroken clouds.8 mph69%29.95 "Hg2 mi
1:00 PM66 °FBroken clouds.7 mph73%29.98 "Hg1 mi
12:30 PM64 °FFog.7 mph83%30.01 "Hg1 mi
12:00 PM64 °FRain. Cloudy.6 mph83%30.01 "Hg1 mi
11:30 AM63 °FRain. Cloudy.3 mph88%30.01 "Hg1 mi
11:00 AM63 °FRain. Cloudy.6 mph88%30.01 "Hg1 mi
10:30 AM61 °FRain. Cloudy.5 mph83%30.01 "Hg1 mi
9:00 AM57 °FRain. Cloudy.7 mph94%30.01 "Hg1 mi
8:00 AM57 °FRain. Cloudy.No wind88%29.98 "Hg0 mi
7:30 AM55 °FRain. Cloudy.3 mph94%29.98 "Hg0 mi
7:00 AM55 °FRain. Overcast.5 mph88%29.98 "Hg0 mi
6:30 AM57 °FRain. Overcast.No wind88%29.95 "Hg0 mi
5:30 AM57 °FRain. Overcast.No wind82%29.92 "Hg1 mi
5:00 AM57 °FRain. Overcast.No wind82%29.92 "Hg1 mi
4:30 AM57 °FRain. Overcast.No wind82%29.92 "Hg1 mi
4:00 AM57 °FRain. Overcast.No wind82%29.92 "Hg1 mi
3:30 AM57 °FFog.No wind88%29.92 "Hg1 mi
3:00 AM57 °FFog.No wind88%29.95 "Hg1 mi
2:30 AM57 °FFog.No wind88%29.95 "Hg1 mi
2:00 AM59 °FFog.No wind82%29.95 "Hg1 mi
Weather by CustomWeather, © 2015

See weather overviewHow to use our weather pages